Total_Precipitation_Accumulation
0.08 0.16 0.81 0.77 0.38 0.32 0.20 0.26 0.36 0.46 0.58 0.61 0.40 0.26 0.21 0.21 0.19 0.16 0.18 0.20 0.20 0.23 0.28 0.33 0.34 0.48 0.67 0.60 0.40 0.12 0.12 0.12 0.08 0.05 0.08 0.16 0.19 0.21 0.26 0.30 0.28 0.30 0.38
0.07 0.19 0.49 0.51 0.31 0.27 0.23 0.21 0.25 0.22 0.36 0.42 0.47 0.52 0.36 0.26 0.24 0.19 0.17 0.14 0.19 0.21 0.29 0.41 0.44 0.39 0.21 0.18 0.15 0.07 0.12 0.07 0.02 0.01 0.01 0.06 0.30 0.35 0.19 0.17 0.26 0.23 0.31
0.05 0.15 0.26 0.42 0.35 0.30 0.22 0.16 0.15 0.17 0.27 0.32 0.45 0.51 0.51 0.36 0.29 0.27 0.31 0.26 0.25 0.37 0.43 0.33 0.40 0.23 0.08 0.05 0.05 0.09 0.11 0.06 0.04 0.06 0.05 0.10 0.22 0.24 0.19 0.24 0.20 0.15 0.17
0.05 0.16 0.17 0.39 0.45 0.34 0.22 0.17 0.14 0.18 0.25 0.26 0.32 0.44 0.52 0.48 0.39 0.29 0.26 0.21 0.26 0.36 0.43 0.20 0.21 0.23 0.20 0.12 0.02 0.03 0.04 0.04 0.05 0.05 0.06 0.17 0.41 0.59 0.50 0.32 0.40 0.38 0.52
0.08 0.17 0.25 0.48 0.49 0.43 0.30 0.18 0.24 0.23 0.28 0.28 0.31 0.48 0.57 0.60 0.42 0.27 0.18 0.16 0.24 0.38 0.47 0.13 0.15 0.21 0.25 0.15 0.03 0.03 0.05 0.10 0.07 0.04 0.05 0.11 0.23 0.34 0.42 0.56 0.48 0.44 0.36
0.10 0.15 0.25 0.52 0.56 0.43 0.38 0.33 0.28 0.26 0.35 0.38 0.41 0.58 0.69 0.76 0.52 0.31 0.26 0.21 0.17 0.22 0.30 0.16 0.11 0.10 0.16 0.08 0.03 0.05 0.09 0.14 0.04 0.01 0.01 0.02 0.07 0.30 0.33 0.36 0.32 0.33 0.33
0.12 0.19 0.29 0.55 0.49 0.37 0.38 0.39 0.35 0.33 0.39 0.35 0.39 0.60 0.68 0.58 0.75 0.55 0.44 0.26 0.15 0.22 0.45 0.42 0.16 0.14 0.14 0.10 0.04 0.07 0.08 0.05 0.01 0.00 0.00 0.00 0.06 0.16 0.15 0.16 0.24 0.25 0.34
0.37 0.40 0.38 0.54 0.58 0.35 0.30 0.30 0.27 0.30 0.35 0.35 0.36 0.68 0.85 0.55 0.53 0.56 0.49 0.27 0.18 0.20 0.45 0.43 0.26 0.13 0.14 0.19 0.18 0.13 0.07 0.02 0.00 0.00 0.00 0.00 0.01 0.06 0.14 0.16 0.22 0.25 0.22
1.09 1.05 0.82 0.55 0.50 0.25 0.22 0.19 0.17 0.15 0.21 0.23 0.30 0.56 0.66 0.43 0.41 0.38 0.43 0.30 0.25 0.24 0.36 0.34 0.37 0.20 0.14 0.22 0.31 0.14 0.04 0.01 0.00 0.00 0.00 0.02 0.09 0.21 0.32 0.34 0.27 0.23 0.24
1.63 1.71 1.82 1.71 1.08 0.35 0.25 0.18 0.07 0.09 0.16 0.13 0.23 0.40 0.21 0.17 0.10 0.15 0.16 0.25 0.39 0.35 0.33 0.35 0.33 0.32 0.26 0.25 0.26 0.26 0.05 0.01 0.01 0.01 0.01 0.09 0.26 0.38 0.45 0.36 0.29 0.27 0.29
2.11 1.88 1.99 2.12 1.38 0.78 0.58 0.35 0.10 0.04 0.05 0.08 0.18 0.32 0.18 0.07 0.03 0.02 0.01 0.04 0.15 0.26 0.32 0.34 0.33 0.20 0.15 0.12 0.07 0.06 0.09 0.02 0.04 0.04 0.04 0.17 0.24 0.30 0.21 0.14 0.16 0.18 0.22
2.03 2.06 2.47 2.04 2.09 1.22 0.97 0.90 0.38 0.08 0.02 0.01 0.10 0.20 0.12 0.09 0.04 0.03 0.02 0.02 0.08 0.17 0.19 0.28 0.31 0.12 0.02 0.00 0.01 0.03 0.05 0.08 0.09 0.06 0.05 0.14 0.15 0.19 0.17 0.17 0.20 0.19 0.18
1.96 1.72 1.75 1.90 2.48 1.80 1.47 1.19 0.82 0.35 0.14 0.02 0.03 0.21 0.18 0.08 0.05 0.02 0.02 0.03 0.11 0.09 0.12 0.11 0.09 0.02 0.00 0.01 0.02 0.03 0.09 0.11 0.09 0.08 0.09 0.13 0.13 0.15 0.12 0.14 0.15 0.17 0.16
0.98 1.77 2.06 1.81 2.07 2.05 1.93 1.60 1.10 0.73 0.44 0.23 0.08 0.09 0.26 0.18 0.18 0.16 0.07 0.08 0.12 0.08 0.12 0.12 0.08 0.02 0.01 0.02 0.03 0.04 0.06 0.07 0.06 0.05 0.05 0.06 0.05 0.08 0.08 0.11 0.14 0.16 0.17
0.68 1.03 1.21 1.68 2.08 2.16 1.70 1.80 1.56 0.85 0.52 0.37 0.25 0.19 0.24 0.36 0.34 0.26 0.27 0.27 0.22 0.16 0.12 0.13 0.16 0.18 0.14 0.09 0.08 0.07 0.05 0.05 0.05 0.04 0.03 0.03 0.04 0.06 0.08 0.11 0.13 0.16 0.23
0.76 0.83 0.82 0.87 1.47 1.99 1.53 0.98 1.70 1.99 1.11 0.43 0.22 0.19 0.21 0.29 0.40 0.49 0.42 0.41 0.31 0.25 0.23 0.23 0.33 0.35 0.30 0.21 0.13 0.08 0.06 0.08 0.13 0.09 0.08 0.11 0.08 0.07 0.09 0.10 0.13 0.20 0.34
0.76 0.82 0.58 0.61 0.70 1.07 1.82 1.18 0.97 1.39 1.84 1.11 0.42 0.30 0.22 0.30 0.38 0.35 0.53 0.54 0.43 0.44 0.61 0.67 0.80 0.70 0.58 0.39 0.21 0.13 0.13 0.11 0.10 0.17 0.19 0.16 0.14 0.11 0.09 0.10 0.16 0.15 0.17
0.88 0.77 0.82 0.59 0.54 0.64 0.68 1.37 1.76 1.26 1.32 1.23 0.74 0.42 0.28 0.24 0.43 0.48 0.24 0.25 0.38 0.50 0.57 0.55 0.62 0.77 0.79 0.72 0.47 0.31 0.28 0.26 0.23 0.21 0.20 0.15 0.12 0.11 0.12 0.10 0.18 0.20 0.16
1.07 1.19 1.15 1.17 0.94 0.73 0.89 1.09 1.47 2.23 1.74 1.25 1.03 0.54 0.46 0.42 0.29 0.31 0.31 0.31 0.35 0.39 0.43 0.48 0.61 0.65 0.74 0.66 0.56 0.63 0.81 0.81 0.58 0.43 0.31 0.20 0.17 0.16 0.13 0.16 0.19 0.27 0.34
0.91 1.53 1.62 1.63 1.73 1.70 1.57 1.89 2.41 2.03 1.83 1.69 1.24 1.08 0.78 0.41 0.45 0.49 0.46 0.49 0.49 0.39 0.35 0.39 0.47 0.53 0.51 0.51 0.55 0.50 0.48 0.60 0.81 0.85 0.76 0.68 0.49 0.35 0.28 0.27 0.30 0.31 0.33
0.81 1.03 1.79 2.10 2.08 2.41 2.20 2.08 1.79 1.90 1.39 1.02 0.95 1.08 1.29 1.15 0.97 0.76 0.66 0.55 0.42 0.31 0.25 0.24 0.33 0.35 0.28 0.41 0.55 0.27 0.21 0.19 0.16 0.13 0.24 0.37 0.40 0.35 0.33 0.37 0.43 0.47 0.52
0.83 1.14 1.18 1.74 2.19 2.13 2.37 2.23 2.25 1.82 1.53 1.22 1.27 1.09 1.08 1.05 1.12 1.21 1.16 0.91 0.58 0.54 0.47 0.34 0.28 0.28 0.28 0.47 0.64 0.50 0.24 0.12 0.09 0.09 0.14 0.17 0.21 0.40 0.40 0.40 0.46 0.47 0.48
1.06 1.10 1.40 1.60 1.91 1.96 2.24 2.68 2.68 2.54 2.13 1.79 1.34 1.21 1.30 1.26 1.45 1.53 1.50 1.54 1.42 1.11 0.83 0.74 0.61 0.55 0.54 0.51 0.61 0.77 0.45 0.22 0.18 0.18 0.16 0.21 0.27 0.36 0.45 0.63 0.75 0.59 0.52
1.00 0.97 1.09 1.65 2.32 2.63 2.41 2.43 2.60 2.80 2.67 2.35 2.51 2.29 1.99 1.86 1.96 2.33 2.51 2.39 2.17 1.77 1.69 1.77 1.72 1.50 1.47 1.14 1.06 0.99 0.93 0.67 0.56 0.41 0.30 0.34 0.48 1.09 1.37 1.21 1.08 1.26 1.29
0.79 0.90 0.87 1.18 1.73 2.93 3.39 3.45 3.37 2.87 2.80 2.55 2.42 2.62 2.33 2.29 2.13 2.06 2.38 2.87 2.92 3.02 2.66 2.30 2.30 2.28 2.18 2.14 1.88 1.64 1.44 1.34 1.38 1.27 0.85 0.63 0.56 0.97 0.83 0.77 0.75 0.72 1.05
0.55 0.69 0.74 0.83 1.26 1.92 3.39 4.54 4.33 3.87 3.15 2.91 2.99 2.85 3.04 2.49 2.19 2.01 2.46 2.71 2.99 2.71 2.48 2.60 2.50 2.25 2.06 1.80 1.73 1.67 1.48 1.31 1.15 1.16 0.91 0.55 0.42 0.35 0.30 0.35 0.50 0.58 0.55